This is the latest recevied weather packets stored in our database for station/object KB2KMM. If no packets are shown the sender has not sent any weather packets the latest 10 day(s).
| Time | Temp. | Humidity | Pressure | Rain* | Wind** | Luminosity | Snow |
|---|---|---|---|---|---|---|---|
| 1777937105 | 13.33° C | 75% | 1010.5 hPa | 0 mm | - | - | - |
| 1777936809 | 13.89° C | 73% | 1010.6 hPa | 0 mm | - | - | - |
| 1777936505 | 13.89° C | 72% | 1010.5 hPa | 0 mm | - | - | - |
| 1777936208 | 14.44° C | 70% | 1010.4 hPa | 0 mm | - | - | - |
| 1777935904 | 14.44° C | 68% | 1010.4 hPa | 0 mm | - | - | - |
| 1777935604 | 15° C | 64% | 1010.4 hPa | 0 mm | - | - | - |
| 1777935305 | 15.56° C | 62% | 1010.4 hPa | 0 mm | - | - | - |
| 1777935009 | 15.56° C | 61% | 1010.4 hPa | 0 mm | - | - | - |
| 1777934705 | 15.56° C | 61% | 1010.5 hPa | 0 mm | - | - | - |
| 1777934409 | 15.56° C | 60% | 1010.5 hPa | 0 mm | - | - | - |
| 1777934105 | 16.11° C | 60% | 1010.5 hPa | 0 mm | - | - | - |
| 1777933809 | 15.56° C | 59% | 1010.7 hPa | 0 mm | - | - | - |
| 1777933505 | 16.11° C | 56% | 1010.7 hPa | 0 mm | - | - | - |
| 1777933209 | 16.11° C | 56% | 1010.7 hPa | 0 mm | - | - | - |
| 1777932905 | 16.11° C | 55% | 1010.8 hPa | 0 mm | - | - | - |
| 1777932607 | 16.11° C | 54% | 1010.8 hPa | 0 mm | - | - | - |
| 1777932306 | 16.67° C | 52% | 1010.9 hPa | 0 mm | - | - | - |
| 1777932005 | 16.67° C | 49% | 1010.8 hPa | 0 mm | - | - | - |
| 1777931705 | 17.22° C | 47% | 1010.8 hPa | 0 mm | - | - | - |
| 1777931409 | 17.22° C | 46% | 1010.8 hPa | 0 mm | - | - | - |
| 1777931105 | 17.78° C | 44% | 1010.8 hPa | 0 mm | - | - | - |
| 1777930809 | 17.78° C | 45% | 1010.9 hPa | 0 mm | - | - | - |
| 1777930505 | 17.78° C | 42% | 1010.9 hPa | 0 mm | - | - | - |
| 1777930209 | 17.78° C | 44% | 1010.9 hPa | 0 mm | - | - | - |
| 1777929905 | 17.78° C | 44% | 1010.9 hPa | 0 mm | - | - | - |
* Rain latest hour (hover to see other rain measurements)
** Current wind speed in m/s (hover to see current wind gust speed)